This is the latest recevied weather packets stored in our database for station/object KT1D-13. If no packets are shown the sender has not sent any weather packets the latest 10 day(s).
| Time | Temp. | Humidity | Pressure | Rain* | Wind** | Luminosity | Snow |
|---|---|---|---|---|---|---|---|
| 1777445726 | 7.78° C | 76% | 1018.6 hPa | 0 mm | - | 0 W/m² | - |
| 1777443927 | 7.22° C | 76% | 1018.7 hPa | 0 mm | - | 0 W/m² | - |
| 1777442148 | 7.22° C | 76% | 1018.7 hPa | 0 mm | - | 0 W/m² | - |
| 1777441547 | 7.22° C | 76% | 1018.5 hPa | 0 mm | - | 0 W/m² | - |
| 1777440927 | 7.22° C | 76% | 1018.4 hPa | 0 mm | - | 0 W/m² | - |
| 1777440328 | 7.22° C | 76% | 1018.1 hPa | 0 mm | - | 0 W/m² | - |
| 1777439728 | 7.22° C | 76% | 1018.3 hPa | 0 mm | - | 0 W/m² | - |
| 1777437929 | 7.22° C | 76% | 1018.2 hPa | 0 mm | - | 0 W/m² | - |
| 1777437322 | 7.22° C | 75% | 1018.1 hPa | 0 mm | - | 0 W/m² | - |
| 1777436729 | 7.22° C | 75% | 1018.2 hPa | 0 mm | - | 0 W/m² | - |
| 1777434929 | 7.22° C | 76% | 1018.8 hPa | 0 mm | - | 0 W/m² | - |
| 1777433729 | 7.22° C | 76% | 1018.8 hPa | 0 mm | - | 0 W/m² | - |
| 1777431330 | 6.67° C | 78% | 1018.9 hPa | 0 mm | - | 0 W/m² | - |
| 1777427131 | 7.22° C | 75% | 1019.8 hPa | 0 mm | - | 0 W/m² | - |
| 1777426531 | 7.22° C | 75% | 1019.9 hPa | 0 mm | - | 0 W/m² | - |
| 1777425916 | 7.22° C | 74% | 1020 hPa | 0 mm | - | 0 W/m² | - |
| 1777425337 | 7.22° C | 74% | 1020 hPa | 0 mm | - | 0 W/m² | - |
| 1777423532 | 7.78° C | 69% | 1019.6 hPa | 0 mm | - | 0 W/m² | - |
| 1777421118 | 9.44° C | 62% | 1019.5 hPa | 0 mm | - | 0 W/m² | - |
| 1777416922 | 10° C | 38% | 1019.6 hPa | 0 mm | - | 45 W/m² | - |
| 1777412120 | 12.22° C | 25% | 1020 hPa | 0 mm | - | 300 W/m² | - |
| 1777410923 | 12.78° C | 26% | 1020.2 hPa | 0 mm | - | 177 W/m² | - |
| 1777403718 | 13.89° C | 29% | 1020.5 hPa | 0 mm | - | 764 W/m² | - |
| 1777403118 | 14.44° C | 32% | 1020.7 hPa | 0 mm | - | 788 W/m² | - |
| 1777398919 | 14.44° C | 55% | 1021.5 hPa | 0 mm | - | 907 W/m² | - |
* Rain latest hour (hover to see other rain measurements)
** Current wind speed in m/s (hover to see current wind gust speed)